,,,PA_Meas_PMT16A,,PR_Meas_QMR101_102,,RH_Meas_QMH101,,SR_Meas_QMS101,,TA_Meas_QMH101,,GenWind,,GenWind,
date,time,status,PA,status,PR,status,RH,status,SR,status,TA,status,DirAvg,status,SpdAvg,
2010-08-14, 00:00:04,VALID,1000.56,VALID,0,VALID,86.9929,VALID,0,VALID,23.6054,VALID,21,VALID,1.60664,
2010-08-14, 00:01:04,VALID,1000.56,VALID,0,VALID,86.6877,VALID,0,VALID,23.6036,VALID,20,VALID,1.62266,
2010-08-14, 00:02:04,VALID,1000.52,VALID,0,VALID,86.6343,VALID,0,VALID,23.5841,VALID,22,VALID,1.2,
2010-08-14, 00:03:04,VALID,1000.52,VALID,0,VALID,86.8251,VALID,0,VALID,23.5646,VALID,16,VALID,1.4082,
2010-08-14, 00:04:04,VALID,1000.51,VALID,0,VALID,86.8098,VALID,0,VALID,23.5841,VALID,8,VALID,1.04375,
2010-08-14, 00:05:04,VALID,1000.5,VALID,0,VALID,86.7183,VALID,0,VALID,23.6232,VALID,17,VALID,0.911719,
2010-08-14, 00:06:04,VALID,1000.49,VALID,0,VALID,86.5123,VALID,0,VALID,23.6622,VALID,16,VALID,1.15625,
2010-08-14, 00:07:04,VALID,1000.51,VALID,0,VALID,86.5275,VALID,0,VALID,23.6427,VALID,19,VALID,1.03281,
2010-08-14, 00:08:04,VALID,1000.49,VALID,0,VALID,86.6343,VALID,0,VALID,23.6622,VALID,19,VALID,0.775391,
2010-08-14, 00:09:04,VALID,1000.48,VALID,0,VALID,86.5199,VALID,0,VALID,23.6427,VALID,19,VALID,0.638281,
2010-08-14, 00:10:04,VALID,1000.48,VALID,0,VALID,86.6115,VALID,0,VALID,23.664,VALID,19,VALID,0.623438,
2010-08-14, 00:11:04,VALID,1000.5,VALID,0,VALID,86.6725,VALID,0,VALID,23.6036,VALID,19,VALID,0.466016,
2010-08-14, 00:12:04,VALID,1000.5,VALID,0,VALID,86.7946,VALID,0,VALID,23.5841,VALID,19,VALID,0.332031,
2010-08-14, 00:13:04,VALID,1000.48,VALID,0,VALID,86.7869,VALID,0,VALID,23.5451,VALID,19,VALID,0.250391,
2010-08-14, 00:14:04,VALID,1000.48,VALID,0,VALID,86.9929,VALID,0,VALID,23.5256,VALID,19,VALID,0,
2010-08-14, 00:15:04,VALID,1000.47,VALID,0,VALID,87.1303,VALID,0,VALID,23.5061,VALID,19,VALID,0,
2010-08-14, 00:16:04,VALID,1000.46,VALID,0,VALID,87.1379,VALID,0,VALID,23.4866,VALID,29,VALID,0.629297,
2010-08-14, 00:17:04,VALID,1000.5,VALID,0,VALID,86.8022,VALID,0,VALID,23.5061,VALID,40,VALID,0.912109,
2010-08-14, 00:18:04,VALID,1000.5,VALID,0,VALID,86.6877,VALID,0,VALID,23.5646,VALID,40,VALID,0.665625,
2010-08-14, 00:19:04,VALID,1000.49,VALID,0,VALID,86.8327,VALID,0,VALID,23.5646,VALID,49,VALID,0.860547,
2010-08-14, 00:20:04,VALID,1000.5,VALID,0,VALID,87.26,VALID,0,VALID,23.5451,VALID,54,VALID,0.830078,
2010-08-14, 00:21:04,VALID,1000.51,VALID,0,VALID,87.26,VALID,0,VALID,23.5646,VALID,67,VALID,0.711719,
2010-08-14, 00:22:04,VALID,1000.54,VALID,0,VALID,87.1989,VALID,0,VALID,23.5646,VALID,64,VALID,1.38867,
2010-08-14, 00:23:04,VALID,1000.51,VALID,0,VALID,87.2066,VALID,0,VALID,23.5841,VALID,69,VALID,1.3543,
2010-08-14, 00:24:04,VALID,1000.54,VALID,0,VALID,87.0463,VALID,0,VALID,23.6036,VALID,83,VALID,1.07578,
2010-08-14, 00:25:04,VALID,1000.52,VALID,0,VALID,86.8251,VALID,0,VALID,23.6835,VALID,97,VALID,1.04531,
2010-08-14, 00:26:04,VALID,1000.54,VALID,0,VALID,86.9853,VALID,0,VALID,23.6622,VALID,115,VALID,1.09883,
2010-08-14, 00:27:04,VALID,1000.52,VALID,0,VALID,87.2676,VALID,0,VALID,23.6232,VALID,127,VALID,1.09414,
2010-08-14, 00:28:04,VALID,1000.48,VALID,0,VALID,87.4431,VALID,0,VALID,23.5646,VALID,139,VALID,1.13789,
2010-08-14, 00:29:04,VALID,1000.51,VALID,0,VALID,88.2289,VALID,0,VALID,23.5451,VALID,139,VALID,1.13828,
2010-08-14, 00:30:04,VALID,1000.51,VALID,0,VALID,88.4731,VALID,0,VALID,23.5256,VALID,135,VALID,0.965625,
2010-08-14, 00:31:04,VALID,1000.5,VALID,0,VALID,88.6104,VALID,0,VALID,23.5079,VALID,134,VALID,1,
2010-08-14, 00:32:04,VALID,1000.5,VALID,0,VALID,88.7783,VALID,0,VALID,23.4671,VALID,143,VALID,1.01719,
2010-08-14, 00:33:04,VALID,1000.52,VALID,0,VALID,88.9537,VALID,0,VALID,23.4866,VALID,143,VALID,1.20938,
2010-08-14, 00:34:04,VALID,1000.51,VALID,0,VALID,88.8011,VALID,0,VALID,23.5256,VALID,142,VALID,1.39336,
2010-08-14, 00:35:04,VALID,1000.54,VALID,0,VALID,88.5112,VALID,0,VALID,23.5451,VALID,149,VALID,1.46758,
2010-08-14, 00:36:04,VALID,1000.56,VALID,0,VALID,88.5112,VALID,0,VALID,23.5841,VALID,150,VALID,1.17813,
2010-08-14, 00:37:04,VALID,1000.58,VALID,0,VALID,88.6028,VALID,0,VALID,23.5841,VALID,157,VALID,1.38906,
2010-08-14, 00:38:04,VALID,1000.61,VALID,0,VALID,88.6943,VALID,0,VALID,23.6232,VALID,159,VALID,0.990234,
2010-08-14, 00:39:04,VALID,1000.63,VALID,0,VALID,88.557,VALID,0,VALID,23.6232,VALID,159,VALID,0.5625,
2010-08-14, 00:40:04,VALID,1000.63,VALID,0,VALID,88.412,VALID,0,VALID,23.6427,VALID,159,VALID,0.295312,
2010-08-14, 00:41:04,VALID,1000.65,VALID,0,VALID,88.3892,VALID,0,VALID,23.6232,VALID,159,VALID,0.215625,
2010-08-14, 00:42:04,VALID,1000.61,VALID,0,VALID,88.4731,VALID,0,VALID,23.5646,VALID,159,VALID,0,
2010-08-14, 00:43:04,VALID,1000.58,VALID,0,VALID,88.7783,VALID,0,VALID,23.5451,VALID,159,VALID,0,
2010-08-14, 00:44:04,VALID,1000.53,VALID,0,VALID,88.9232,VALID,0,VALID,23.5256,VALID,159,VALID,0,
2010-08-14, 00:45:04,VALID,1000.51,VALID,0,VALID,89.0453,VALID,0,VALID,23.5274,VALID,159,VALID,0.25,
2010-08-14, 00:46:04,VALID,1000.48,VALID,0,VALID,89.0071,VALID,0,VALID,23.5061,VALID,350,VALID,0.670703,
2010-08-14, 00:47:04,VALID,1000.47,VALID,0,VALID,88.9385,VALID,0,VALID,23.4866,VALID,356,VALID,0.885547,
2010-08-14, 00:48:04,VALID,1000.43,VALID,0,VALID,88.6409,VALID,0,VALID,23.4475,VALID,7,VALID,1.27031,
2010-08-14, 00:49:04,VALID,1000.46,VALID,0,VALID,88.618,VALID,0,VALID,23.3695,VALID,7,VALID,1.14844,
2010-08-14, 00:50:04,VALID,1000.46,VALID,0,VALID,88.9995,VALID,0,VALID,23.2915,VALID,12,VALID,1.03203,
2010-08-14, 00:51:04,VALID,1000.43,VALID,0,VALID,89.4191,VALID,0,VALID,23.2329,VALID,12,VALID,1.01133,
2010-08-14, 00:52:04,VALID,1000.44,VALID,0,VALID,89.6786,VALID,0,VALID,23.1939,VALID,12,VALID,0.789453,
2010-08-14, 00:53:04,VALID,1000.41,VALID,0,VALID,90.0448,VALID,0,VALID,23.1549,VALID,5,VALID,0.924609,
2010-08-14, 00:54:04,VALID,1000.39,VALID,0,VALID,89.8769,VALID,0,VALID,23.1549,VALID,5,VALID,0.771094,
2010-08-14, 00:55:04,VALID,1000.37,VALID,0,VALID,90.0371,VALID,0,VALID,23.1354,VALID,10,VALID,0.91875,
2010-08-14, 00:56:04,VALID,1000.36,VALID,0,VALID,89.8846,VALID,0,VALID,23.1354,VALID,35,VALID,1.11602,
2010-08-14, 00:57:04,VALID,1000.34,VALID,0,VALID,89.8311,VALID,0,VALID,23.0964,VALID,40,VALID,1.76211,
2010-08-14, 00:58:04,VALID,1000.34,VALID,0,VALID,89.9532,VALID,0,VALID,23.0769,VALID,47,VALID,1.66367,
2010-08-14, 00:59:04,VALID,1000.34,VALID,0,VALID,89.9456,VALID,0,VALID,23.0573,VALID,37,VALID,1.52344,
2010-08-14, 01:00:04,VALID,1000.33,VALID,0,VALID,89.9837,VALID,0,VALID,23.0378,VALID,30,VALID,1.64688,
2010-08-14, 01:01:04,VALID,1000.31,VALID,0,VALID,90.1821,VALID,0,VALID,23.0183,VALID,31,VALID,1.50977,
2010-08-14, 01:02:04,VALID,1000.28,VALID,0,VALID,90.3805,VALID,0,VALID,22.9988,VALID,27,VALID,1.60586,
2010-08-14, 01:03:04,VALID,1000.3,VALID,0,VALID,90.2431,VALID,0,VALID,23.0183,VALID,29,VALID,1.28711,
2010-08-14, 01:04:04,VALID,1000.27,VALID,0,VALID,90.2279,VALID,0,VALID,23.0573,VALID,24,VALID,1.39766,
2010-08-14, 01:05:04,VALID,1000.28,VALID,0,VALID,90.0677,VALID,0,VALID,23.0964,VALID,32,VALID,1.36055,
2010-08-14, 01:06:04,VALID,1000.29,VALID,0,VALID,89.9609,VALID,0,VALID,23.1354,VALID,33,VALID,1.06992,
2010-08-14, 01:07:04,VALID,1000.36,VALID,0,VALID,89.793,VALID,0,VALID,23.1354,VALID,16,VALID,0.59375,
2010-08-14, 01:08:04,VALID,1000.31,VALID,0,VALID,89.7243,VALID,0,VALID,23.1566,VALID,15,VALID,0.535937,
2010-08-14, 01:09:04,VALID,1000.31,VALID,0,VALID,89.9532,VALID,0,VALID,23.1354,VALID,27,VALID,0.923437,
2010-08-14, 01:10:04,VALID,1000.27,VALID,0,VALID,90.0829,VALID,0,VALID,23.1549,VALID,27,VALID,0.811328,
2010-08-14, 01:11:04,VALID,1000.26,VALID,0,VALID,90.0906,VALID,0,VALID,23.1744,VALID,359,VALID,0.749219,
2010-08-14, 01:12:04,VALID,1000.28,VALID,0,VALID,89.8388,VALID,0,VALID,23.1939,VALID,323,VALID,1.09492,
2010-08-14, 01:13:04,VALID,1000.26,VALID,0,VALID,89.732,VALID,0,VALID,23.1939,VALID,293,VALID,1.24336,
2010-08-14, 01:14:04,VALID,1000.25,VALID,0,VALID,89.648,VALID,0,VALID,23.2134,VALID,291,VALID,0.887891,
2010-08-14, 01:15:04,VALID,1000.24,VALID,0,VALID,89.6023,VALID,0,VALID,23.2329,VALID,315,VALID,0.589844,
2010-08-14, 01:16:04,VALID,1000.22,VALID,0,VALID,89.3581,VALID,0,VALID,23.2524,VALID,342,VALID,0.672656,
2010-08-14, 01:17:04,VALID,1000.2,VALID,0,VALID,89.1292,VALID,0,VALID,23.2524,VALID,349,VALID,0.689453,
2010-08-14, 01:18:04,VALID,1000.17,VALID,0,VALID,88.969,VALID,0,VALID,23.2329,VALID,349,VALID,0,
2010-08-14, 01:19:04,VALID,1000.15,VALID,0,VALID,88.9232,VALID,0,VALID,23.2134,VALID,349,VALID,0,
2010-08-14, 01:20:04,VALID,1000.1,VALID,0,VALID,88.9232,VALID,0,VALID,23.1939,VALID,349,VALID,0,
2010-08-14, 01:21:04,VALID,1000.04,VALID,0,VALID,88.969,VALID,0,VALID,23.1744,VALID,349,VALID,0,
2010-08-14, 01:22:04,VALID,1000.01,VALID,0,VALID,89.0834,VALID,0,VALID,23.1354,VALID,349,VALID,0,
2010-08-14, 01:23:04,VALID,999.975,VALID,0,VALID,89.236,VALID,0,VALID,23.1159,VALID,349,VALID,0,
2010-08-14, 01:24:04,VALID,999.961,VALID,0,VALID,89.2055,VALID,0,VALID,23.1176,VALID,349,VALID,0,
2010-08-14, 01:25:04,VALID,999.971,VALID,0,VALID,89.3123,VALID,0,VALID,23.0769,VALID,349,VALID,0,
2010-08-14, 01:26:04,VALID,999.975,VALID,0,VALID,89.3963,VALID,0,VALID,23.0964,VALID,349,VALID,0,
2010-08-14, 01:27:04,VALID,999.985,VALID,0,VALID,89.4497,VALID,0,VALID,23.0769,VALID,349,VALID,0,
2010-08-14, 01:28:04,VALID,1000,VALID,0,VALID,89.3657,VALID,0,VALID,23.0769,VALID,349,VALID,0,
2010-08-14, 01:29:04,VALID,1000.02,VALID,0,VALID,89.4115,VALID,0,VALID,23.1176,VALID,349,VALID,0,
2010-08-14, 01:30:04,VALID,1000.03,VALID,0,VALID,89.2666,VALID,0,VALID,23.1549,VALID,349,VALID,0,
2010-08-14, 01:31:04,VALID,1000.03,VALID,0,VALID,89.0911,VALID,0,VALID,23.1939,VALID,238,VALID,0,
2010-08-14, 01:32:04,VALID,1000.05,VALID,0,VALID,88.8317,VALID,0,VALID,23.2524,VALID,173,VALID,0,
2010-08-14, 01:33:04,VALID,1000.05,VALID,0,VALID,88.29,VALID,0,VALID,23.2915,VALID,152,VALID,1.03945,
2010-08-14, 01:34:04,VALID,1000.04,VALID,0,VALID,88.3892,VALID,0,VALID,23.311,VALID,136,VALID,1.25977,
2010-08-14, 01:35:04,VALID,1000.05,VALID,0,VALID,88.1984,VALID,0,VALID,23.35,VALID,117,VALID,1.3543,
2010-08-14, 01:36:04,VALID,1000.01,VALID,0,VALID,87.9619,VALID,0,VALID,23.389,VALID,114,VALID,1.14609,
2010-08-14, 01:37:04,VALID,1000.02,VALID,0,VALID,87.7711,VALID,0,VALID,23.428,VALID,111,VALID,0.832422,
2010-08-14, 01:38:05,VALID,999.962,VALID,0,VALID,87.6872,VALID,0,VALID,23.428,VALID,96,VALID,0.807031,
2010-08-14, 01:39:05,VALID,999.987,VALID,0,VALID,88.0077,VALID,0,VALID,23.428,VALID,96,VALID,0.772656,
2010-08-14, 01:40:05,VALID,999.973,VALID,0,VALID,87.9771,VALID,0,VALID,23.428,VALID,96,VALID,0.883203,
2010-08-14, 01:41:05,VALID,999.961,VALID,0,VALID,88.0306,VALID,0,VALID,23.4085,VALID,101,VALID,1.16055,
2010-08-14, 01:42:05,VALID,999.943,VALID,0,VALID,88.1221,VALID,0,VALID,23.4298,VALID,107,VALID,0.872656,
2010-08-14, 01:43:05,VALID,999.935,VALID,0,VALID,88.2442,VALID,0,VALID,23.389,VALID,106,VALID,0.769922,
2010-08-14, 01:44:05,VALID,999.969,VALID,0,VALID,88.2366,VALID,0,VALID,23.389,VALID,106,VALID,0.0878906,
2010-08-14, 01:45:05,VALID,999.9,VALID,0,VALID,88.351,VALID,0,VALID,23.3695,VALID,103,VALID,0.335156,
2010-08-14, 01:46:05,VALID,999.878,VALID,0,VALID,88.4807,VALID,0,VALID,23.35,VALID,8,VALID,0.589453,
2010-08-14, 01:47:05,VALID,999.887,VALID,0,VALID,88.3663,VALID,0,VALID,23.3305,VALID,360,VALID,0.755859,
2010-08-14, 01:48:05,VALID,999.842,VALID,0,VALID,88.351,VALID,0,VALID,23.2719,VALID,1,VALID,0.834766,
2010-08-14, 01:49:05,VALID,999.83,VALID,0,VALID,88.8393,VALID,0,VALID,23.2134,VALID,2,VALID,0.740625,
2010-08-14, 01:50:05,VALID,999.81,VALID,0,VALID,88.908,VALID,0,VALID,23.1939,VALID,6,VALID,0.669141,
2010-08-14, 01:51:05,VALID,999.777,VALID,0,VALID,88.908,VALID,0,VALID,23.1566,VALID,6,VALID,0.506641,
2010-08-14, 01:52:05,VALID,999.754,VALID,0,VALID,89.1979,VALID,0,VALID,23.0964,VALID,6,VALID,0.6375,
2010-08-14, 01:53:05,VALID,999.773,VALID,0,VALID,89.6175,VALID,0,VALID,23.0769,VALID,10,VALID,0.564844,
2010-08-14, 01:54:05,VALID,999.771,VALID,0,VALID,89.6938,VALID,0,VALID,23.0573,VALID,10,VALID,0.292969,
2010-08-14, 01:55:05,VALID,999.73,VALID,0,VALID,89.7854,VALID,0,VALID,23.0378,VALID,10,VALID,0,
2010-08-14, 01:56:05,VALID,999.746,VALID,0,VALID,89.8693,VALID,0,VALID,23.0378,VALID,10,VALID,0,
2010-08-14, 01:57:05,VALID,999.739,VALID,0,VALID,90.1211,VALID,0,VALID,23.0573,VALID,10,VALID,0,
2010-08-14, 01:58:05,VALID,999.754,VALID,0,VALID,90.3652,VALID,0,VALID,23.0769,VALID,176,VALID,0.947656,
2010-08-14, 01:59:05,VALID,999.709,VALID,0,VALID,90.1974,VALID,0,VALID,23.1566,VALID,173,VALID,0.698828,
2010-08-14, 02:00:05,VALID,999.684,VALID,0,VALID,89.8922,VALID,0,VALID,23.1939,VALID,164,VALID,0.480078,
2010-08-14, 02:01:05,VALID,999.648,VALID,0,VALID,89.6404,VALID,0,VALID,23.2329,VALID,164,VALID,0.0121094,
2010-08-14, 02:02:05,VALID,999.61,VALID,0,VALID,89.4115,VALID,0,VALID,23.2719,VALID,160,VALID,0.442578,
2010-08-14, 02:03:05,VALID,999.614,VALID,0,VALID,88.9156,VALID,0,VALID,23.3305,VALID,174,VALID,0.626953,
2010-08-14, 02:04:05,VALID,999.612,VALID,0,VALID,88.6791,VALID,0,VALID,23.3695,VALID,167,VALID,0.650781,
2010-08-14, 02:05:05,VALID,999.612,VALID,0,VALID,88.5036,VALID,0,VALID,23.428,VALID,167,VALID,0.417188,
2010-08-14, 02:06:05,VALID,999.605,VALID,0,VALID,88.1832,VALID,0,VALID,23.4671,VALID,167,VALID,0.232812,
2010-08-14, 02:07:05,VALID,999.631,VALID,0,VALID,88.1297,VALID,0,VALID,23.4866,VALID,167,VALID,0.2875,
2010-08-14, 02:08:05,VALID,999.599,VALID,0,VALID,88.1145,VALID,0,VALID,23.4866,VALID,167,VALID,0.339844,
2010-08-14, 02:09:05,VALID,999.601,VALID,0,VALID,88.1221,VALID,0,VALID,23.5061,VALID,167,VALID,0.334375,
2010-08-14, 02:10:05,VALID,999.624,VALID,0,VALID,88.1832,VALID,0,VALID,23.4671,VALID,109,VALID,0.497266,
2010-08-14, 02:11:05,VALID,999.627,VALID,0,VALID,88.3739,VALID,0,VALID,23.4475,VALID,61,VALID,0.543359,
2010-08-14, 02:12:05,VALID,999.648,VALID,0,VALID,88.6562,VALID,0,VALID,23.389,VALID,56,VALID,0.647266,
2010-08-14, 02:13:05,VALID,999.692,VALID,0,VALID,88.824,VALID,0,VALID,23.3695,VALID,64,VALID,0.383594,
2010-08-14, 02:14:05,VALID,999.718,VALID,0,VALID,88.9766,VALID,0,VALID,23.3518,VALID,64,VALID,0.0570313,
2010-08-14, 02:15:05,VALID,999.743,VALID,0,VALID,89.1063,VALID,0,VALID,23.2915,VALID,64,VALID,0,
2010-08-14, 02:16:05,VALID,999.72,VALID,0,VALID,89.3352,VALID,0,VALID,23.2507,VALID,64,VALID,0,
2010-08-14, 02:17:05,VALID,999.723,VALID,0,VALID,89.5336,VALID,0,VALID,23.2329,VALID,64,VALID,0,
2010-08-14, 02:18:05,VALID,999.691,VALID,0,VALID,89.7091,VALID,0,VALID,23.2329,VALID,64,VALID,0,
2010-08-14, 02:19:05,VALID,999.643,VALID,0,VALID,89.8388,VALID,0,VALID,23.1939,VALID,64,VALID,0,
2010-08-14, 02:20:05,VALID,999.61,VALID,0,VALID,89.9303,VALID,0,VALID,23.1939,VALID,64,VALID,0,
2010-08-14, 02:21:05,VALID,999.58,VALID,0,VALID,90.0371,VALID,0,VALID,23.1939,VALID,64,VALID,0,
2010-08-14, 02:22:05,VALID,999.55,VALID,0,VALID,90.1287,VALID,0,VALID,23.1939,VALID,64,VALID,0,
2010-08-14, 02:23:05,VALID,999.522,VALID,0,VALID,90.144,VALID,0,VALID,23.1744,VALID,64,VALID,0,
2010-08-14, 02:24:05,VALID,999.566,VALID,0,VALID,90.1974,VALID,0,VALID,23.1549,VALID,64,VALID,0,
2010-08-14, 02:25:05,VALID,999.524,VALID,0,VALID,90.2355,VALID,0,VALID,23.1549,VALID,64,VALID,0,
2010-08-14, 02:26:05,VALID,999.556,VALID,0,VALID,90.2889,VALID,0,VALID,23.1744,VALID,64,VALID,0,
2010-08-14, 02:27:05,VALID,999.595,VALID,0,VALID,90.3423,VALID,0,VALID,23.1744,VALID,64,VALID,0,
2010-08-14, 02:28:05,VALID,999.581,VALID,0,VALID,90.2966,VALID,0,VALID,23.1744,VALID,64,VALID,0,
2010-08-14, 02:29:05,VALID,999.577,VALID,0,VALID,90.3347,VALID,0,VALID,23.1549,VALID,64,VALID,0,
2010-08-14, 02:30:05,VALID,999.527,VALID,0,VALID,90.3194,VALID,0,VALID,23.1549,VALID,64,VALID,0,
2010-08-14, 02:31:05,VALID,999.512,VALID,0,VALID,90.2813,VALID,0,VALID,23.1744,VALID,64,VALID,0,
2010-08-14, 02:32:05,VALID,999.466,VALID,0,VALID,90.2431,VALID,0,VALID,23.1744,VALID,64,VALID,0,
2010-08-14, 02:33:05,VALID,999.448,VALID,0,VALID,90.2813,VALID,0,VALID,23.1549,VALID,64,VALID,0,
2010-08-14, 02:34:05,VALID,999.478,VALID,0,VALID,90.3576,VALID,0,VALID,23.1549,VALID,64,VALID,0,
2010-08-14, 02:35:05,VALID,999.489,VALID,0,VALID,90.4415,VALID,0,VALID,23.1549,VALID,64,VALID,0,
2010-08-14, 02:36:05,VALID,999.498,VALID,0,VALID,90.4949,VALID,0,VALID,23.1549,VALID,64,VALID,0,
2010-08-14, 02:37:05,VALID,999.514,VALID,0,VALID,90.4415,VALID,0,VALID,23.1744,VALID,64,VALID,0,
2010-08-14, 02:38:05,VALID,999.515,VALID,0,VALID,90.3347,VALID,0,VALID,23.1939,VALID,64,VALID,0,
2010-08-14, 02:39:05,VALID,999.466,VALID,0,VALID,90.4034,VALID,0,VALID,23.2134,VALID,64,VALID,0.05,
2010-08-14, 02:40:05,VALID,999.411,VALID,0,VALID,90.3271,VALID,0,VALID,23.1939,VALID,25,VALID,0.691406,
2010-08-14, 02:41:05,VALID,999.405,VALID,0,VALID,90.0219,VALID,0,VALID,23.1549,VALID,25,VALID,0.864453,
2010-08-14, 02:42:05,VALID,999.392,VALID,0,VALID,90.0524,VALID,0,VALID,23.0964,VALID,25,VALID,1.11133,
2010-08-14, 02:43:05,VALID,999.389,VALID,0,VALID,90.4949,VALID,0,VALID,23.0378,VALID,25,VALID,1.02188,
2010-08-14, 02:44:05,VALID,999.409,VALID,0,VALID,90.8077,VALID,0,VALID,22.9988,VALID,25,VALID,0.80625,
2010-08-14, 02:45:05,VALID,999.407,VALID,0,VALID,90.884,VALID,0,VALID,22.9598,VALID,25,VALID,0.630078,
2010-08-14, 02:46:05,VALID,999.391,VALID,0,VALID,90.9909,VALID,0,VALID,22.9403,VALID,25,VALID,0.439453,
2010-08-14, 02:47:05,VALID,999.371,VALID,0,VALID,91.1587,VALID,0,VALID,22.9208,VALID,25,VALID,0.313672,
2010-08-14, 02:48:05,VALID,999.343,VALID,0,VALID,91.3723,VALID,0,VALID,22.9403,VALID,306,VALID,0.678516,
2010-08-14, 02:49:05,VALID,999.338,VALID,0,VALID,91.4868,VALID,0,VALID,22.9403,VALID,288,VALID,0.548828,
2010-08-14, 02:50:05,VALID,999.293,VALID,0,VALID,91.5631,VALID,0,VALID,22.9598,VALID,288,VALID,0.664844,
2010-08-14, 02:51:05,VALID,999.287,VALID,0,VALID,91.502,VALID,0,VALID,22.9793,VALID,293,VALID,0.692969,
2010-08-14, 02:52:05,VALID,999.307,VALID,0,VALID,91.4181,VALID,0,VALID,23.0183,VALID,294,VALID,0.483594,
2010-08-14, 02:53:05,VALID,999.308,VALID,0,VALID,91.3266,VALID,0,VALID,23.0183,VALID,300,VALID,0.328906,
2010-08-14, 02:54:05,VALID,999.33,VALID,0,VALID,91.3266,VALID,0,VALID,23.0183,VALID,300,VALID,0.316016,
2010-08-14, 02:55:05,VALID,999.349,VALID,0,VALID,91.3189,VALID,0,VALID,23.0183,VALID,300,VALID,0,
2010-08-14, 02:56:05,VALID,999.404,VALID,0,VALID,91.3266,VALID,0,VALID,22.9988,VALID,300,VALID,0,
2010-08-14, 02:57:05,VALID,999.416,VALID,0,VALID,91.3418,VALID,0,VALID,22.9793,VALID,300,VALID,0,
2010-08-14, 02:58:05,VALID,999.397,VALID,0,VALID,91.4105,VALID,0,VALID,22.9793,VALID,300,VALID,0,
2010-08-14, 02:59:05,VALID,999.398,VALID,0,VALID,91.4715,VALID,0,VALID,22.9793,VALID,300,VALID,0,
2010-08-14, 03:00:05,VALID,999.412,VALID,0,VALID,91.5478,VALID,0,VALID,22.9793,VALID,300,VALID,0,
2010-08-14, 03:01:05,VALID,999.363,VALID,0,VALID,91.5783,VALID,0,VALID,22.9598,VALID,300,VALID,0.196875,
2010-08-14, 03:02:05,VALID,999.336,VALID,0,VALID,91.647,VALID,0,VALID,22.9793,VALID,289,VALID,0.315625,
2010-08-14, 03:03:05,VALID,999.307,VALID,0,VALID,91.6241,VALID,0,VALID,23.0183,VALID,289,VALID,0.485547,
2010-08-14, 03:04:05,VALID,999.302,VALID,0,VALID,91.502,VALID,0,VALID,23.0378,VALID,289,VALID,0.550781,
2010-08-14, 03:05:05,VALID,999.316,VALID,0,VALID,91.38,VALID,0,VALID,23.0786,VALID,289,VALID,0.434766,
2010-08-14, 03:06:05,VALID,999.371,VALID,0,VALID,91.3037,VALID,0,VALID,23.0573,VALID,289,VALID,0.236719,
2010-08-14, 03:07:05,VALID,999.429,VALID,0,VALID,91.296,VALID,0,VALID,23.0786,VALID,289,VALID,0,
2010-08-14, 03:08:05,VALID,999.435,VALID,0,VALID,91.3037,VALID,0,VALID,23.0573,VALID,289,VALID,0,
2010-08-14, 03:09:05,VALID,999.457,VALID,0,VALID,91.3113,VALID,0,VALID,23.0786,VALID,289,VALID,0,
2010-08-14, 03:10:05,VALID,999.454,VALID,0,VALID,91.3418,VALID,0,VALID,23.0573,VALID,289,VALID,0,
2010-08-14, 03:11:05,VALID,999.44,VALID,0,VALID,91.3342,VALID,0,VALID,23.0769,VALID,289,VALID,0,
2010-08-14, 03:12:05,VALID,999.45,VALID,0,VALID,91.3342,VALID,0,VALID,23.0573,VALID,289,VALID,0,
2010-08-14, 03:13:05,VALID,999.427,VALID,0,VALID,91.3189,VALID,0,VALID,23.0573,VALID,289,VALID,0,
2010-08-14, 03:14:05,VALID,999.411,VALID,0,VALID,91.3189,VALID,0,VALID,23.0378,VALID,289,VALID,0.464844,
2010-08-14, 03:15:05,VALID,999.41,VALID,0,VALID,91.2655,VALID,0,VALID,23.0183,VALID,289,VALID,0.540234,
2010-08-14, 03:16:05,VALID,999.434,VALID,0,VALID,91.2503,VALID,0,VALID,22.9793,VALID,289,VALID,0.629687,
2010-08-14, 03:17:05,VALID,999.447,VALID,0,VALID,91.4944,VALID,0,VALID,22.9598,VALID,289,VALID,0.501562,
2010-08-14, 03:18:05,VALID,999.441,VALID,0,VALID,91.6241,VALID,0,VALID,22.9403,VALID,289,VALID,0.451172,
2010-08-14, 03:19:05,VALID,999.393,VALID,0,VALID,91.7004,VALID,0,VALID,22.9403,VALID,306,VALID,0.648828,
2010-08-14, 03:20:05,VALID,999.417,VALID,0,VALID,91.7691,VALID,0.112286,VALID,22.9403,VALID,324,VALID,0.674219,
2010-08-14, 03:21:05,VALID,999.397,VALID,0,VALID,91.8072,VALID,0,VALID,22.9403,VALID,330,VALID,0.599609,
2010-08-14, 03:22:05,VALID,999.404,VALID,0,VALID,91.7996,VALID,0,VALID,22.942,VALID,338,VALID,0.633594,
2010-08-14, 03:23:05,VALID,999.42,VALID,0,VALID,91.8911,VALID,0,VALID,22.942,VALID,338,VALID,0.716016,
2010-08-14, 03:24:05,VALID,999.398,VALID,0,VALID,91.9445,VALID,0,VALID,22.9013,VALID,338,VALID,0.545703,
2010-08-14, 03:25:05,VALID,999.381,VALID,0,VALID,91.9064,VALID,0,VALID,22.9013,VALID,338,VALID,0.578125,
2010-08-14, 03:26:05,VALID,999.412,VALID,0,VALID,91.8377,VALID,0,VALID,22.8818,VALID,338,VALID,0.658984,
2010-08-14, 03:27:05,VALID,999.369,VALID,0,VALID,91.7614,VALID,0,VALID,22.864,VALID,24,VALID,1.17227,
2010-08-14, 03:28:05,VALID,999.372,VALID,0,VALID,91.586,VALID,0,VALID,22.864,VALID,41,VALID,1.4207,
2010-08-14, 03:29:05,VALID,999.375,VALID,0,VALID,91.5936,VALID,0,VALID,22.8427,VALID,52,VALID,1.24883,
2010-08-14, 03:30:05,VALID,999.379,VALID,0,VALID,91.4944,VALID,0,VALID,22.8427,VALID,40,VALID,0.930859,
2010-08-14, 03:31:05,VALID,999.385,VALID,0,VALID,91.4334,VALID,0,VALID,22.8427,VALID,43,VALID,0.822656,
2010-08-14, 03:32:05,VALID,999.417,VALID,0,VALID,91.4944,VALID,0,VALID,22.8623,VALID,44,VALID,0.614453,
2010-08-14, 03:33:05,VALID,999.429,VALID,0,VALID,91.4486,VALID,0,VALID,22.8835,VALID,44,VALID,0.108594,
2010-08-14, 03:34:05,VALID,999.408,VALID,0,VALID,91.4944,VALID,0,VALID,22.8427,VALID,44,VALID,0.639844,
2010-08-14, 03:35:05,VALID,999.437,VALID,0,VALID,91.5326,VALID,0,VALID,22.8427,VALID,44,VALID,0.292188,
2010-08-14, 03:36:05,VALID,999.391,VALID,0,VALID,91.6546,VALID,0,VALID,22.8232,VALID,32,VALID,0.382422,
2010-08-14, 03:37:05,VALID,999.412,VALID,0,VALID,91.7767,VALID,0,VALID,22.8232,VALID,360,VALID,0.480859,
2010-08-14, 03:38:05,VALID,999.401,VALID,0,VALID,91.792,VALID,0,VALID,22.8232,VALID,360,VALID,0.0738281,
2010-08-14, 03:39:05,VALID,999.407,VALID,0,VALID,91.7385,VALID,0,VALID,22.8232,VALID,360,VALID,0,
2010-08-14, 03:40:05,VALID,999.425,VALID,0,VALID,91.7614,VALID,0,VALID,22.8232,VALID,1,VALID,0.320313,
2010-08-14, 03:41:05,VALID,999.439,VALID,0,VALID,91.7385,VALID,0,VALID,22.7842,VALID,4,VALID,0.479297,
2010-08-14, 03:42:05,VALID,999.46,VALID,0,VALID,91.8072,VALID,0,VALID,22.7647,VALID,4,VALID,0.176953,
2010-08-14, 03:43:05,VALID,999.447,VALID,0,VALID,91.7691,VALID,0,VALID,22.7452,VALID,4,VALID,0,
2010-08-14, 03:44:05,VALID,999.453,VALID,0,VALID,91.8148,VALID,0,VALID,22.7452,VALID,4,VALID,0,
2010-08-14, 03:45:05,VALID,999.435,VALID,0,VALID,91.8988,VALID,0,VALID,22.7452,VALID,4,VALID,0,
2010-08-14, 03:46:05,VALID,999.437,VALID,0,VALID,91.9064,VALID,0,VALID,22.7452,VALID,4,VALID,0,
2010-08-14, 03:47:05,VALID,999.441,VALID,0,VALID,91.8072,VALID,0,VALID,22.7647,VALID,4,VALID,0.556641,
2010-08-14, 03:48:05,VALID,999.398,VALID,0,VALID,91.5783,VALID,0,VALID,22.7647,VALID,4,VALID,0.297266,
2010-08-14, 03:49:05,VALID,999.386,VALID,0,VALID,91.4181,VALID,0,VALID,22.7842,VALID,4,VALID,0.0433594,
2010-08-14, 03:50:05,VALID,999.418,VALID,0,VALID,91.3189,VALID,0,VALID,22.7842,VALID,4,VALID,0,